Simultaneous Nadir Overpasses (SNOs) Predictions

Prediction of SNOs between GOES-15 and METOP-A Satellite Orbit:

Table of predicted SNOs for the next 14.0 days since TLE Epoch: 12/16/2017
Index Date Time (GOES-15) GOES-15 Lat,Lon METOP-A Lat,Lon Distance(km) Time Diff (sec)
1 12/16/2017 18:17:13 -0.12,-135.38 -0.74,-132.57 321.01 80
2 12/18/2017 06:36:12 0.11,-135.42 -0.25,-137.17 198.31 80
3 12/19/2017 06:12:52 0.11,-135.41 0.86,-132.18 369.71 80
4 12/20/2017 18:31:41 -0.10,-135.35 0.20,-136.73 156.76 80
5 12/21/2017 18:13:41 -0.10,-135.34 -0.91,-131.73 411.39 80
6 12/23/2017 06:32:39 0.09,-135.38 -0.13,-136.33 108.46 80
7 12/24/2017 06:09:18 0.09,-135.36 0.98,-131.33 458.91 80
8 12/25/2017 18:28:08 -0.08,-135.28 0.08,-135.88 69.07 80
9 12/26/2017 18:10:07 -0.09,-135.27 -1.04,-130.89 498.40 80
10 12/28/2017 06:29:06 0.08,-135.30 0.00,-135.48 22.43 80




NCC Satellite Simultaneous Nadir Overpasses (SNOs) Prediction Service
